Tracking 31027 objects as of 19-Jul-2025
HD Live streaming from Space Station
objects crossing your sky now

COSMOS 839 DEB

Track COSMOS 839 DEB now!
10-day predictions


NORAD ID: 13515
Int'l Code: 1976-067BC
Perigee: 980.9 km
Apogee: 2,027.6 km
Inclination: 65.9 °
Period: 115.9 minutes
Semi major axis: 7875 km
RCS: 0.0107 m2 (small)
Launch date: July 8, 1976
Source: Commonwealth of Independent States (former USSR) (CIS)
Launch site: PLESETSK MISSILE AND SPACE COMPLEX (PKMTR)

Note: This is SATELLITE DEBRIS
Your satellite tracking list
IRIDIUM 33 DEB
Track 1 satellite(s)




NASA's NSSDC Master Catalog

Two Line Element Set (TLE):
1 13515U 76067BC  25199.73929183  .00000606  00000-0  22168-2 0  9992
2 13515  65.9009 312.2530 0664570 255.1415 264.8230 12.42249472 38815
Source of the keplerian elements: AFSPC